When you browse on this site, cookies collect data to enhance your experience and personalize the content and advertising you see.
Visit our Privacy Policy to learn more. By continuing to use the site, you agree to this use of cookies and data.
  • In Hungary
  • List of Countries
  • For 7 days
  • Water Temperature
  • Satellite Maps
  • Weather Map
  • News
  • Weather Widgets
  • user-avatar
    Login

    Hourly Weather Pierzwin

    Today, 19 December, Wednesday

    Time Temperature Precipitation Wind Pressure Humidity
    00:00 -1°C° 0 mm 2 mps 761 mmHg 92%
    01:00 -1°C° 0 mm 2 mps 761 mmHg 92%
    02:00 -1°C° 0 mm 2 mps 760 mmHg 91%
    03:00 -1°C° 0 mm 3 mps 760 mmHg 91%
    04:00 -1°C° 0 mm 3 mps 760 mmHg 91%
    05:00 -1°C° 0 mm 3 mps 759 mmHg 91%
    06:00 -1°C° 0 mm 3 mps 759 mmHg 90%
    07:00 -2°C° 0 mm 3 mps 759 mmHg 90%
    08:00 -1°C° 0 mm 3 mps 759 mmHg 86%
    09:00 0°C° 0 mm 3 mps 758 mmHg 83%
    10:00 -1°C° 0 mm 4 mps 758 mmHg 80%
    11:00 +1°C° 0 mm 3 mps 758 mmHg 77%
    12:00 +1°C° 0 mm 3 mps 758 mmHg 74%
    13:00 +2°C° 0 mm 3 mps 757 mmHg 72%
    14:00 +1°C° 0 mm 3 mps 757 mmHg 74%
    15:00 +1°C° 0 mm 3 mps 757 mmHg 77%
    16:00 0°C° 0 mm 3 mps 757 mmHg 79%
    17:00 +1°C° 0 mm 2 mps 756 mmHg 79%
    18:00 +1°C° 0 mm 2 mps 756 mmHg 80%
    19:00 +1°C° 0 mm 2 mps 756 mmHg 80%
    20:00 +1°C° 0.1 mm 2 mps 756 mmHg 81%
    21:00 +1°C° 0.1 mm 2 mps 756 mmHg 81%
    22:00 +1°C° 0.1 mm 2 mps 756 mmHg 82%
    23:00 +1°C° 0.1 mm 2 mps 756 mmHg 82%

    Tomorrow, 20 December, Thursday

    Time Temperature Precipitation Wind Pressure Humidity
    00:00 +1°C° 0.1 mm 2 mps 756 mmHg 82%
    01:00 +1°C° 0.1 mm 2 mps 756 mmHg 82%
    02:00 +1°C° 0.1 mm 2 mps 756 mmHg 82%
    03:00 +1°C° 0.1 mm 2 mps 756 mmHg 82%
    04:00 +1°C° 0.1 mm 2 mps 756 mmHg 83%
    05:00 +1°C° 0.2 mm 2 mps 756 mmHg 83%
    06:00 +1°C° 0.2 mm 2 mps 756 mmHg 84%
    07:00 -1°C° 0.2 mm 2 mps 756 mmHg 85%
    08:00 +1°C° 0.2 mm 2 mps 756 mmHg 84%
    09:00 +1°C° 0.2 mm 2 mps 756 mmHg 84%
    10:00 0°C° 0.2 mm 3 mps 756 mmHg 84%
    11:00 0°C° 0.3 mm 3 mps 756 mmHg 85%
    12:00 +1°C° 0.3 mm 3 mps 755 mmHg 86%
    13:00 +1°C° 0.3 mm 3 mps 755 mmHg 87%
    14:00 +1°C° 0.1 mm 3 mps 755 mmHg 88%
    15:00 +1°C° 0.1 mm 3 mps 755 mmHg 89%
    16:00 +1°C° 0.1 mm 3 mps 755 mmHg 90%
    17:00 +1°C° 0 mm 3 mps 755 mmHg 90%
    18:00 +1°C° 0 mm 3 mps 755 mmHg 89%
    19:00 +2°C° 0 mm 3 mps 755 mmHg 89%
    20:00 +2°C° 0 mm 3 mps 755 mmHg 88%
    21:00 +1°C° 0 mm 4 mps 755 mmHg 88%
    22:00 +1°C° 0 mm 4 mps 755 mmHg 88%
    23:00 +1°C° 0 mm 4 mps 755 mmHg 88%

    Day after tomorrow, 21 December, Friday

    Time Temperature Precipitation Wind Pressure Humidity
    00:00 +1°C° 0 mm 4 mps 755 mmHg 88%
    01:00 +1°C° 0 mm 4 mps 755 mmHg 88%
    02:00 +1°C° 0 mm 4 mps 755 mmHg 88%
    03:00 +1°C° 0 mm 4 mps 755 mmHg 88%
    04:00 +1°C° 0 mm 4 mps 755 mmHg 88%
    05:00 +1°C° 0 mm 4 mps 754 mmHg 87%
    06:00 +1°C° 0 mm 4 mps 754 mmHg 87%
    07:00 +3°C° 0 mm 4 mps 754 mmHg 86%
    08:00 +3°C° 0.1 mm 4 mps 754 mmHg 85%
    09:00 +3°C° 0.1 mm 4 mps 753 mmHg 84%
    10:00 +3°C° 0.1 mm 4 mps 753 mmHg 83%
    11:00 +4°C° 0.1 mm 4 mps 752 mmHg 83%
    12:00 +4°C° 0.1 mm 4 mps 752 mmHg 83%
    13:00 +4°C° 0.1 mm 4 mps 751 mmHg 83%
    14:00 +4°C° 0.4 mm 4 mps 750 mmHg 84%
    15:00 +4°C° 0.4 mm 4 mps 749 mmHg 85%
    16:00 +4°C° 0.4 mm 4 mps 748 mmHg 86%
    17:00 +3°C° 1.1 mm 5 mps 748 mmHg 87%
    18:00 +3°C° 1.1 mm 5 mps 747 mmHg 87%
    19:00 +5°C° 1.1 mm 5 mps 746 mmHg 88%
    20:00 +5°C° 0.3 mm 6 mps 746 mmHg 86%
    21:00 +7°C° 0.3 mm 6 mps 746 mmHg 85%
    22:00 +8°C° 0.3 mm 6 mps 746 mmHg 83%
    23:00 +8°C° 0.1 mm 6 mps 746 mmHg 81%

    22 December, Saturday

    Time Temperature Precipitation Wind Pressure Humidity
    00:00 +7°C° 0.1 mm 6 mps 747 mmHg 79%
    01:00 +5°C° 0.1 mm 6 mps 747 mmHg 76%
    02:00 +5°C° 0 mm 6 mps 747 mmHg 77%
    03:00 +5°C° 0 mm 6 mps 748 mmHg 77%
    04:00 +5°C° 0 mm 6 mps 748 mmHg 78%
    05:00 +5°C° 0 mm 6 mps 748 mmHg 79%
    06:00 +5°C° 0 mm 6 mps 748 mmHg 80%
    07:00 +6°C° 0 mm 5 mps 748 mmHg 81%
    08:00 +6°C° 0 mm 5 mps 748 mmHg 80%
    09:00 +6°C° 0 mm 5 mps 748 mmHg 79%
    10:00 +6°C° 0 mm 5 mps 748 mmHg 79%
    11:00 +7°C° 0.4 mm 5 mps 747 mmHg 80%
    12:00 +7°C° 0.4 mm 5 mps 746 mmHg 82%
    13:00 +7°C° 0.4 mm 5 mps 746 mmHg 83%
    14:00 +7°C° 1.3 mm 5 mps 746 mmHg 82%
    15:00 +7°C° 1.3 mm 6 mps 746 mmHg 82%
    16:00 +8°C° 1.3 mm 7 mps 746 mmHg 81%
    17:00 +6°C° 0.1 mm 7 mps 746 mmHg 80%
    18:00 +6°C° 0.1 mm 7 mps 747 mmHg 79%
    19:00 +6°C° 0.1 mm 7 mps 747 mmHg 77%
    20:00 +6°C° 0.1 mm 7 mps 748 mmHg 78%
    21:00 +5°C° 0.1 mm 7 mps 749 mmHg 78%
    22:00 +5°C° 0.1 mm 7 mps 749 mmHg 78%
    23:00 +5°C° 0.1 mm 7 mps 750 mmHg 78%

    23 December, Sunday

    Time Temperature Precipitation Wind Pressure Humidity
    00:00 +5°C° 0.1 mm 7 mps 750 mmHg 78%
    01:00 +5°C° 0.1 mm 7 mps 751 mmHg 78%
    02:00 +5°C° 0 mm 7 mps 751 mmHg 78%
    03:00 +5°C° 0 mm 7 mps 751 mmHg 78%
    04:00 +4°C° 0 mm 7 mps 752 mmHg 79%
    05:00 +4°C° 0.1 mm 7 mps 752 mmHg 80%
    06:00 +4°C° 0.1 mm 6 mps 752 mmHg 81%
    07:00 +4°C° 0.1 mm 6 mps 753 mmHg 82%
    08:00 +4°C° 0 mm 6 mps 753 mmHg 81%
    09:00 +4°C° 0 mm 6 mps 753 mmHg 80%
    10:00 +4°C° 0 mm 6 mps 754 mmHg 79%
    11:00 +5°C° 0.1 mm 6 mps 754 mmHg 78%
    12:00 +5°C° 0.1 mm 6 mps 754 mmHg 77%
    13:00 +5°C° 0.1 mm 6 mps 754 mmHg 76%
    14:00 +5°C° 0.1 mm 6 mps 754 mmHg 77%
    15:00 +5°C° 0.1 mm 6 mps 754 mmHg 78%
    16:00 +5°C° 0.1 mm 6 mps 754 mmHg 79%
    17:00 +5°C° 0.1 mm 6 mps 754 mmHg 78%
    18:00 +4°C° 0.1 mm 6 mps 754 mmHg 76%
    19:00 +4°C° 0.1 mm 6 mps 755 mmHg 75%
    20:00 +4°C° 0 mm 6 mps 755 mmHg 76%
    21:00 +4°C° 0 mm 6 mps 755 mmHg 78%
    22:00 +4°C° 0 mm 6 mps 756 mmHg 79%
    23:00 +3°C° 0 mm 5 mps 756 mmHg 81%

    24 December, Monday

    Time Temperature Precipitation Wind Pressure Humidity
    00:00 +3°C° 0 mm 5 mps 756 mmHg 82%
    01:00 +4°C° 0 mm 4 mps 757 mmHg 83%
    02:00 +4°C° 0 mm 4 mps 757 mmHg 85%
    03:00 +4°C° 0 mm 3 mps 757 mmHg 87%
    04:00 +4°C° 0 mm 3 mps 757 mmHg 89%
    05:00 +4°C° 0 mm 3 mps 757 mmHg 89%
    06:00 +4°C° 0 mm 3 mps 757 mmHg 90%
    07:00 +4°C° 0 mm 3 mps 757 mmHg 90%
    08:00 +4°C° 0.1 mm 3 mps 757 mmHg 90%
    09:00 +4°C° 0.1 mm 3 mps 757 mmHg 90%
    10:00 +4°C° 0.1 mm 3 mps 758 mmHg 89%
    11:00 +4°C° 0.1 mm 3 mps 758 mmHg 87%
    12:00 +4°C° 0.1 mm 3 mps 757 mmHg 86%
    13:00 +5°C° 0.1 mm 3 mps 757 mmHg 84%
    14:00 +4°C° 0.1 mm 3 mps 757 mmHg 83%
    15:00 +4°C° 0.1 mm 3 mps 758 mmHg 83%
    16:00 +4°C° 0.1 mm 3 mps 758 mmHg 83%
    17:00 +4°C° 0.1 mm 3 mps 758 mmHg 84%
    18:00 +4°C° 0.1 mm 3 mps 758 mmHg 85%
    19:00 +4°C° 0.1 mm 3 mps 758 mmHg 86%
    20:00 +3°C° 0 mm 3 mps 758 mmHg 88%
    21:00 +3°C° 0 mm 3 mps 758 mmHg 89%
    22:00 +4°C° 0 mm 2 mps 758 mmHg 91%
    23:00 +3°C° 0 mm 3 mps 758 mmHg 91%
    Show more